Tracking 30995 objects as of 7-Jul-2025
HD Live streaming from Space Station
objects crossing your sky now

STARLINK-5830

Track STARLINK-5830 now!
10-day predictions
STARLINK-5830 is classified as:


NORAD ID: 57065
Int'l Code: 2023-088T
Perigee: 565.4 km
Apogee: 567.0 km
Inclination: 43.0 °
Period: 95.8 minutes
Semi major axis: 6937 km
RCS: Unknown
Launch date: June 22, 2023
Source: United States (US)
Launch site: AIR FORCE WESTERN TEST RANGE (AFWTR)
Your satellite tracking list
Your tracking list is empty




NASA's NSSDC Master Catalog

Two Line Element Set (TLE):
1 57065U 23088T   25187.51274117 -.00000036  00000-0  12403-4 0  9999
2 57065  43.0049   5.5177 0001140 268.6941  91.3770 15.02534521112359
Source of the keplerian elements: AFSPC